When you browse on this site, cookies collect data to enhance your experience and personalize the content and advertising you see.
Visit our Privacy Policy to learn more. By continuing to use the site, you agree to this use of cookies and data.
  • In Romania
  • List of Countries
  • For 7 days
  • Water Temperature
  • Satellite Maps
  • Weather Map
  • Weather Widgets
  • user-avatar
    Login

    Hourly Weather Kitzbuhel

    Today, 19 April, Friday

    Time Temperature Precipitation Wind Pressure Humidity
    00:00 +5°C° 0 mm 2 mps 683 mmHg 82%
    01:00 +4°C° 0 mm 2 mps 683 mmHg 83%
    02:00 +4°C° 0 mm 2 mps 683 mmHg 83%
    03:00 +4°C° 0 mm 2 mps 683 mmHg 83%
    04:00 +4°C° 0 mm 2 mps 684 mmHg 82%
    05:00 +5°C° 0 mm 2 mps 684 mmHg 78%
    06:00 +6°C° 0 mm 2 mps 684 mmHg 74%
    07:00 +7°C° 0 mm 2 mps 685 mmHg 70%
    08:00 +10°C° 0 mm 2 mps 685 mmHg 61%
    09:00 +14°C° 0 mm 1 mps 685 mmHg 52%
    10:00 +18°C° 0 mm 1 mps 686 mmHg 43%
    11:00 +19°C° 0 mm 1 mps 686 mmHg 40%
    12:00 +19°C° 0 mm 1 mps 686 mmHg 36%
    13:00 +20°C° 0 mm 1 mps 686 mmHg 33%
    14:00 +20°C° 0 mm 1 mps 686 mmHg 33%
    15:00 +19°C° 0 mm 1 mps 685 mmHg 34%
    16:00 +19°C° 0 mm 1 mps 685 mmHg 34%
    17:00 +15°C° 0 mm 1 mps 685 mmHg 45%
    18:00 +13°C° 0 mm 1 mps 684 mmHg 56%
    19:00 +10°C° 0 mm 1 mps 684 mmHg 67%
    20:00 +9°C° 0 mm 1 mps 684 mmHg 67%
    21:00 +8°C° 0 mm 2 mps 684 mmHg 68%
    22:00 +7°C° 0 mm 2 mps 685 mmHg 68%
    23:00 +6°C° 0 mm 2 mps 685 mmHg 69%

    Tomorrow, 20 April, Saturday

    Time Temperature Precipitation Wind Pressure Humidity
    00:00 +6°C° 0 mm 2 mps 685 mmHg 70%
    01:00 +6°C° 0 mm 2 mps 685 mmHg 71%
    02:00 +6°C° 0 mm 2 mps 684 mmHg 72%
    03:00 +5°C° 0 mm 2 mps 684 mmHg 73%
    04:00 +5°C° 0 mm 2 mps 684 mmHg 75%
    05:00 +6°C° 0 mm 2 mps 684 mmHg 71%
    06:00 +7°C° 0 mm 2 mps 684 mmHg 68%
    07:00 +9°C° 0 mm 2 mps 684 mmHg 65%
    08:00 +12°C° 0 mm 1 mps 685 mmHg 54%
    09:00 +15°C° 0 mm 1 mps 685 mmHg 44%
    10:00 +19°C° 0 mm 1 mps 685 mmHg 33%
    11:00 +20°C° 0 mm 1 mps 685 mmHg 31%
    12:00 +20°C° 0 mm 1 mps 685 mmHg 30%
    13:00 +21°C° 0 mm 1 mps 685 mmHg 28%
    14:00 +20°C° 0 mm 1 mps 684 mmHg 29%
    15:00 +19°C° 0 mm 2 mps 684 mmHg 31%
    16:00 +19°C° 0 mm 2 mps 683 mmHg 33%
    17:00 +16°C° 0 mm 1 mps 683 mmHg 46%
    18:00 +13°C° 0 mm 1 mps 682 mmHg 59%
    19:00 +11°C° 0 mm 1 mps 681 mmHg 72%
    20:00 +10°C° 0 mm 1 mps 682 mmHg 72%
    21:00 +9°C° 0 mm 1 mps 682 mmHg 72%
    22:00 +8°C° 0 mm 2 mps 682 mmHg 72%
    23:00 +7°C° 0 mm 2 mps 682 mmHg 73%

    Day after tomorrow, 21 April, Sunday

    Time Temperature Precipitation Wind Pressure Humidity
    00:00 +7°C° 0 mm 2 mps 681 mmHg 74%
    01:00 +7°C° 0 mm 2 mps 681 mmHg 74%
    02:00 +6°C° 0 mm 2 mps 681 mmHg 75%
    03:00 +6°C° 0 mm 2 mps 681 mmHg 76%
    04:00 +6°C° 0 mm 2 mps 680 mmHg 77%
    05:00 +7°C° 0 mm 2 mps 680 mmHg 72%
    06:00 +9°C° 0 mm 1 mps 680 mmHg 68%
    07:00 +11°C° 0 mm 1 mps 680 mmHg 64%
    08:00 +13°C° 0 mm 1 mps 680 mmHg 54%
    09:00 +16°C° 0 mm 1 mps 680 mmHg 45%
    10:00 +19°C° 0 mm 1 mps 681 mmHg 35%
    11:00 +20°C° 0 mm 1 mps 680 mmHg 34%
    12:00 +20°C° 0 mm 1 mps 680 mmHg 32%
    13:00 +21°C° 0 mm 1 mps 680 mmHg 31%
    14:00 +21°C° 0 mm 1 mps 679 mmHg 33%
    15:00 +19°C° 0 mm 2 mps 678 mmHg 36%
    16:00 +19°C° 0 mm 2 mps 678 mmHg 38%
    17:00 +16°C° 0 mm 1 mps 677 mmHg 50%
    18:00 +14°C° 0 mm 1 mps 677 mmHg 62%
    19:00 +11°C° 0 mm 1 mps 676 mmHg 74%
    20:00 +11°C° 0 mm 1 mps 676 mmHg 75%
    21:00 +9°C° 0 mm 2 mps 677 mmHg 76%
    22:00 +8°C° 0 mm 2 mps 677 mmHg 78%
    23:00 +8°C° 0 mm 2 mps 676 mmHg 77%

    22 April, Monday

    Time Temperature Precipitation Wind Pressure Humidity
    00:00 +8°C° 0 mm 2 mps 676 mmHg 77%
    01:00 +7°C° 0 mm 2 mps 676 mmHg 77%
    02:00 +7°C° 0 mm 2 mps 676 mmHg 77%
    03:00 +7°C° 0 mm 2 mps 675 mmHg 78%
    04:00 +6°C° 0 mm 2 mps 675 mmHg 78%
    05:00 +7°C° 0 mm 2 mps 675 mmHg 72%
    06:00 +8°C° 0 mm 2 mps 675 mmHg 65%
    07:00 +9°C° 0 mm 2 mps 675 mmHg 59%
    08:00 +13°C° 0 mm 2 mps 675 mmHg 50%
    09:00 +16°C° 0 mm 1 mps 675 mmHg 41%
    10:00 +20°C° 0 mm 1 mps 675 mmHg 32%
    11:00 +21°C° 0 mm 1 mps 675 mmHg 31%
    12:00 +21°C° 0 mm 1 mps 675 mmHg 30%
    13:00 +22°C° 0 mm 1 mps 674 mmHg 30%
    14:00 +20°C° 0 mm 2 mps 674 mmHg 32%
    15:00 +20°C° 0 mm 2 mps 673 mmHg 34%
    16:00 +19°C° 0 mm 2 mps 672 mmHg 36%
    17:00 +17°C° 0 mm 2 mps 672 mmHg 46%
    18:00 +14°C° 0 mm 2 mps 671 mmHg 56%
    19:00 +12°C° 0 mm 2 mps 670 mmHg 65%
    20:00 +10°C° 0 mm 2 mps 670 mmHg 67%
    21:00 +9°C° 0 mm 3 mps 670 mmHg 68%
    22:00 +8°C° 0 mm 3 mps 670 mmHg 69%
    23:00 +8°C° 0 mm 3 mps 670 mmHg 70%

    23 April, Tuesday

    Time Temperature Precipitation Wind Pressure Humidity
    00:00 +8°C° 0 mm 3 mps 669 mmHg 70%
    01:00 +8°C° 0 mm 3 mps 669 mmHg 71%
    02:00 +8°C° 0 mm 3 mps 669 mmHg 71%
    03:00 +8°C° 0 mm 3 mps 668 mmHg 71%
    04:00 +8°C° 0 mm 2 mps 668 mmHg 72%
    05:00 +9°C° 0 mm 2 mps 668 mmHg 71%
    06:00 +10°C° 0 mm 2 mps 668 mmHg 71%
    07:00 +10°C° 0 mm 2 mps 668 mmHg 70%
    08:00 +13°C° 0 mm 2 mps 669 mmHg 63%
    09:00 +15°C° 0 mm 2 mps 669 mmHg 56%
    10:00 +17°C° 0 mm 2 mps 669 mmHg 48%
    11:00 +18°C° 0 mm 2 mps 669 mmHg 45%
    12:00 +19°C° 0 mm 2 mps 669 mmHg 42%
    13:00 +20°C° 0 mm 2 mps 669 mmHg 39%
    14:00 +19°C° 0 mm 2 mps 669 mmHg 41%
    15:00 +19°C° 0 mm 2 mps 669 mmHg 43%
    16:00 +19°C° 0 mm 2 mps 669 mmHg 44%
    17:00 +17°C° 0 mm 2 mps 669 mmHg 53%
    18:00 +15°C° 0 mm 2 mps 669 mmHg 61%
    19:00 +13°C° 0 mm 2 mps 669 mmHg 70%
    20:00 +12°C° 0 mm 2 mps 669 mmHg 71%
    21:00 +10°C° 0 mm 2 mps 670 mmHg 72%
    22:00 +9°C° 0 mm 2 mps 670 mmHg 73%
    23:00 +9°C° 0 mm 2 mps 670 mmHg 73%

    24 April, Wednesday

    Time Temperature Precipitation Wind Pressure Humidity
    00:00 +9°C° 0 mm 2 mps 671 mmHg 73%
    01:00 +9°C° 0 mm 2 mps 671 mmHg 73%
    02:00 +8°C° 0 mm 2 mps 671 mmHg 74%
    03:00 +8°C° 0 mm 2 mps 672 mmHg 76%
    04:00 +8°C° 0 mm 2 mps 672 mmHg 77%
    05:00 +9°C° 0 mm 2 mps 673 mmHg 74%
    06:00 +10°C° 0 mm 2 mps 673 mmHg 71%
    07:00 +12°C° 0 mm 1 mps 674 mmHg 67%
    08:00 +15°C° 0 mm 1 mps 675 mmHg 59%
    09:00 +19°C° 0 mm 1 mps 675 mmHg 51%
    10:00 +20°C° 0 mm 0 mps 676 mmHg 42%
    11:00 +21°C° 0 mm 1 mps 676 mmHg 43%
    12:00 +21°C° 0 mm 1 mps 676 mmHg 44%
    13:00 +21°C° 0 mm 1 mps 676 mmHg 45%
    14:00 +21°C° 0.1 mm 1 mps 676 mmHg 46%
    15:00 +21°C° 0.1 mm 1 mps 676 mmHg 46%
    16:00 +21°C° 0.1 mm 1 mps 676 mmHg 47%
    17:00 +19°C° 0.1 mm 1 mps 676 mmHg 58%
    18:00 +16°C° 0.1 mm 1 mps 676 mmHg 69%
    19:00 +14°C° 0.1 mm 1 mps 676 mmHg 79%
    20:00 +13°C° 0 mm 1 mps 676 mmHg 80%
    21:00 +12°C° 0 mm 2 mps 676 mmHg 80%
    22:00 +10°C° 0 mm 2 mps 677 mmHg 81%
    23:00 +10°C° 0 mm 2 mps 676 mmHg 80%
    Show more